Regional Weather Roundup
Issued by NWS

Home | Current Version | Previous Version | Graphics & Text | Print | Product List | Glossary On
Versions: 1 2 3 4 5 6 7 8 9 10 11 12 13 14 15 16 17 18 19 20 21 22 23 24 25 26 27 28
000
ASUS45 KSLC 141710
RWRUT

UTAH REGIONAL WEATHER ROUNDUP
NATIONAL WEATHER SERVICE SALT LAKE CITY UT
1000 AM MST THU DEC 14 2017

UTZ001>011-023>025-141800-

NORTHERN UTAH

CITY           SKY/WX    TMP DP  RH WIND       PRES   REMARKS
BRIGHAM CITY   SUNNY     27  25  91 SE5       30.46S WCI  22
DUGWAY         SUNNY     23  20  89 VRB2      30.47R
HILL AFB       NOT AVBL
LOGAN          SUNNY     23  19  85 N3        30.47R FOG
OGDEN          SUNNY     30  27  88 CALM      30.44R FOG
SALT LAKE CITY MOSUNNY   31  26  82 S7        30.45R WCI  24
TOOELE VALLEY  SUNNY     30  28  93 S5        30.46R WCI  25
WENDOVER       SUNNY     26  20  77 CALM      30.47R
HEBER CITY       N/A     32  25  74 CALM      30.39R
WEST JORDAN    SUNNY     29  29  98 SW5       30.45R WCI  24

$$

UTZ011>015-024>027-141800-

CENTRAL/NORTHEAST UTAH

CITY           SKY/WX    TMP DP  RH WIND       PRES   REMARKS
PROVO AIRPORT  CLOUDY    32  27  81 W6        30.46R WCI  26
MOAB/CANYONLAN SUNNY     44  21  40 E15       30.29R
DELTA          SUNNY     25  19  80 SE3       30.45R
PRICE          SUNNY     38  22  52 NE9       30.30R WCI  31
RICHFIELD      SUNNY     30  23  74 N8        30.42R HAZE    WCI  23
ROOSEVELT      SUNNY     34  21  60 CALM      30.40R
VERNAL         SUNNY     37  19  48 S3        30.36R

$$

UTZ013>016-019>022-027-141800-

SOUTHERN UTAH

CITY           SKY/WX    TMP DP  RH WIND       PRES   REMARKS
BRYCE CANYON     N/A    N/A N/A N/A MISG      30.30R
CEDAR CITY     SUNNY     31  17  56 N12       30.35R WCI  22
MILFORD        SUNNY     31  20  63 NE10      30.42R WCI  22
ST GEORGE      SUNNY     49  22  34 S6        30.28R
HANKSVILLE     SUNNY     41  23  48 CALM      30.35R
KANAB          SUNNY     46  18  31 N10       30.28R
BLANDING         N/A     42  19  39 SW9       30.23R

$$

REGIONAL REPORTS     COLORADO/ARIZONA

CITY           SKY/WX    TMP DP  RH WIND       PRES   REMARKS
CRAIG, CO      SUNNY     24  19  81 SW7       30.33R WCI  16
GRAND JUNCTION SUNNY     41  22  46 NE8       30.30R
RIFLE, CO      SUNNY     38  20  48 NW12      30.30R WCI  30
MONTROSE, CO   CLOUDY    34  23  64 N7        30.29R WCI  28
CORTEZ, CO     SUNNY     42  24  49 N15G23    30.14R
COLORADO CITY    N/A     43  21  42 NW8       30.28R
PAGE, AZ       SUNNY     50  23  34 N16       30.23R
GRAND CANYON   SUNNY     42  20  41 NE18G26   30.22R
KINGMAN, AZ    SUNNY     51  19  28 N16       30.15R
FLAGSTAFF, AZ  MOSUNNY   37  18  46 E16G31    30.17R WCI  28

$$

REGIONAL REPORTS    NEVADA/IDAHO/WYOMING

CITY           SKY/WX    TMP DP  RH WIND       PRES   REMARKS
LAS VEGAS, NV  SUNNY     59  18  20 NE15      30.23R
ELY, NY        SUNNY     32  22  66 N13       30.40R WCI  22
ELKO, NV       SUNNY     22  16  78 CALM      30.45S
POCATELLO, ID  FOG       22  20  92 CALM      30.52R VSB 1/2
BURLEY, ID     CLOUDY    23  20  88 NE7       30.51R FOG     WCI  15
FORT BRIDGER,  SUNNY     30  25  80 W16       30.37R WCI  19
EVANSTON, WY   CLOUDY    27  22  81 SW7       30.36R WCI  19
ROCK SPRINGS,  CLOUDY    24  22  91 W8        30.33S WCI  15

$$




USA.gov is the U.S. government's official web portal to all federal, state and local government web resources and services.